DateTimeUTC,F1_A11,F1_S11,BsB_S11,BsG_S11,BsR_S11,BbsB_S11,BbsG_S11,BbsR_S11,BaB_A11,BaG_A11,BaR_A11,Tu_S11,T_S11,Uu_S11,U_S11,P_S11,T1_A11
2021-12-02T00:00:00Z,00000200,21000000,,,,,,,-000.17,-000.19,-000.35,19.3,26.0,,00.0,0626.9,30.9
2021-12-02T00:01:00Z,00000200,21000000,,,,,,,0000.17,0000.56,0000.24,19.2,26.0,,00.0,0626.9,30.9
2021-12-02T00:02:00Z,00000200,21000000,,,,,,,-000.18,-000.20,-000.20,19.2,26.0,,00.0,0626.9,30.9
2021-12-02T00:03:00Z,00000200,61000000,,,,,,,-000.14,0000.02,-000.00,19.2,26.0,,00.0,0626.9,30.9
2021-12-02T00:04:00Z,00000200,41000000,-000.17,-000.07,0000.06,-000.87,0000.04,-000.13,0000.98,-000.01,0000.46,19.3,25.8,00.2,00.1,0627.7,30.9
2021-12-02T00:05:00Z,00000200,01000000,-000.66,0000.21,-000.19,0000.07,-000.15,-000.47,-000.32,0000.29,-000.10,19.4,25.8,00.2,00.2,0627.8,30.9
2021-12-02T00:06:00Z,00000200,01000000,0000.25,-000.05,-000.04,0000.29,-000.10,-000.33,-000.07,0000.10,-000.33,19.5,25.8,00.2,00.1,0627.7,30.9
2021-12-02T00:07:00Z,00000200,01000000,0000.23,0000.20,0000.01,-000.20,-000.16,-000.06,0000.08,0000.02,0000.22,19.5,25.8,00.1,00.1,0627.7,30.9
2021-12-02T00:08:00Z,00000200,01000000,-000.19,0000.18,0000.35,-000.47,-000.13,-000.07,0000.19,-000.03,0000.42,19.6,25.8,00.2,00.1,0627.7,30.9
2021-12-02T00:09:00Z,00000200,01000000,0001.51,0000.06,-000.03,-000.13,-000.11,-000.67,-000.17,0000.07,-000.25,19.7,25.9,00.2,00.1,0627.6,30.9
2021-12-02T00:10:00Z,00000200,01000000,0000.44,-000.31,-000.23,-000.32,-000.28,-000.89,-000.12,-000.19,0000.21,19.7,25.9,00.2,00.1,0627.6,30.9
2021-12-02T00:11:00Z,00000200,01000000,-000.11,-000.02,-000.21,-000.26,-000.01,-000.22,0000.21,-000.12,-000.31,19.7,25.9,00.2,00.1,0627.5,30.9
2021-12-02T00:12:00Z,00000200,01000000,0000.04,-000.32,0000.10,0000.31,0000.11,0000.05,-000.07,0000.06,-000.01,19.6,25.9,00.2,00.1,0627.5,30.9
2021-12-02T00:13:00Z,00000200,01000000,-000.02,0000.21,-000.10,0000.16,0000.00,-000.16,0000.19,0000.02,-000.08,19.5,25.8,00.1,00.1,0627.4,30.9
2021-12-02T00:14:00Z,00000200,01000000,-000.26,0000.04,-000.18,-000.63,-000.04,-000.51,-000.05,0000.01,0000.27,19.5,25.8,00.2,00.1,0627.4,30.9
2021-12-02T00:15:00Z,00000200,01000000,-000.46,0000.37,-000.12,0000.09,0000.17,-000.03,-000.24,0000.30,-000.20,19.5,25.8,00.2,00.1,0627.3,30.9
2021-12-02T00:16:00Z,00000200,01000000,0000.22,0000.15,0000.17,-000.06,-000.19,-000.10,-000.16,-000.20,0000.00,19.4,25.8,00.2,00.1,0627.3,30.9
2021-12-02T00:17:00Z,00000200,01000000,0000.48,0000.10,-000.05,0000.00,0000.32,-000.12,0000.61,0000.42,0000.21,19.4,25.7,00.2,00.1,0627.2,30.8
2021-12-02T00:18:00Z,00000200,01000000,0000.04,0000.13,-000.21,-000.66,0000.09,-000.62,-000.02,0000.32,0000.17,19.4,25.7,00.1,00.1,0627.2,30.9
2021-12-02T00:19:00Z,00000200,01000000,0000.68,0000.08,0000.30,-000.97,0000.00,-000.08,0000.02,-000.32,-000.19,19.4,25.7,00.2,00.1,0627.1,30.9
2021-12-02T00:20:00Z,00000200,01000000,0000.25,0000.31,-000.03,-000.14,0000.20,-000.53,0000.20,0000.30,0000.43,19.4,25.7,00.2,00.2,0627.1,30.9
2021-12-02T00:21:00Z,00000200,01000000,-000.02,0000.10,0000.15,-000.48,0000.15,-000.24,0000.38,-000.36,-000.17,19.5,25.7,00.2,00.1,0627.1,30.9
2021-12-02T00:22:00Z,00000200,01000000,-000.04,-000.38,0000.32,0000.23,0000.04,-000.07,-000.34,0000.56,0000.16,19.6,25.8,00.2,00.1,0627.2,30.9
2021-12-02T00:23:00Z,00000200,01000000,-000.52,-000.24,0000.47,0000.45,0000.08,-000.22,0000.12,-000.17,0000.18,19.7,25.8,00.1,00.1,0627.2,30.9
2021-12-02T00:24:00Z,00000200,01000000,0000.68,0000.27,-000.04,0000.28,0000.05,-000.34,0000.19,0000.13,-000.19,19.7,25.8,00.1,00.1,0627.2,30.9
2021-12-02T00:25:00Z,00000200,01000000,0000.16,0000.13,0000.24,0000.05,0000.01,-000.18,0000.08,-000.26,0000.14,19.8,25.9,00.2,00.1,0627.2,31.0
2021-12-02T00:26:00Z,00000200,01000000,0000.14,0000.23,0000.04,-000.06,0000.30,-000.44,-000.27,-000.12,-000.25,19.8,25.9,00.1,00.1,0627.2,30.9
2021-12-02T00:27:00Z,00000200,01000000,0000.09,0000.44,-000.05,0000.46,0000.26,-000.51,-000.25,-000.03,0000.03,19.7,25.9,00.2,00.1,0627.2,30.9
2021-12-02T00:28:00Z,00000200,01000000,0000.39,0000.14,-000.15,0000.36,-000.04,-000.30,0000.39,0000.21,0000.06,19.7,25.9,00.2,00.1,0627.1,31.0
2021-12-02T00:29:00Z,00000200,01000000,0000.35,0000.12,-000.12,0000.50,0000.05,-000.06,-000.02,-000.17,0000.03,19.6,25.8,00.2,00.1,0627.1,30.9
2021-12-02T00:30:00Z,00000200,01000000,0000.89,0000.38,0000.10,-000.25,0000.20,0000.10,-000.02,0000.24,-000.03,19.6,25.8,00.2,00.2,0627.0,30.9
2021-12-02T00:31:00Z,00000200,01000000,-000.49,0000.31,0000.04,0000.58,0000.05,-000.22,-000.08,0000.18,-000.11,19.5,25.8,00.2,00.1,0627.1,30.9
2021-12-02T00:32:00Z,00000200,01000000,0000.05,0000.18,0000.12,0000.01,0000.10,-000.31,0000.29,-000.30,0000.42,19.4,25.8,00.2,00.1,0627.0,30.9
2021-12-02T00:33:00Z,00000200,01000000,0000.65,0000.06,0000.19,0000.69,0000.03,0000.18,0000.20,0000.07,-000.30,19.4,25.7,00.2,00.1,0627.0,30.9
2021-12-02T00:34:00Z,00000200,01000000,0000.27,0000.10,-000.05,0000.02,-000.06,-000.43,-000.03,0000.34,0000.35,19.5,25.7,00.2,00.1,0627.0,30.9
2021-12-02T00:35:00Z,00000200,01000000,0000.37,0000.03,0000.20,-000.20,0000.17,-000.42,0000.30,-000.06,-000.17,19.5,25.7,00.2,00.1,0627.0,30.9
2021-12-02T00:36:00Z,00000200,01000000,-000.25,-000.06,0000.13,0000.07,0000.39,-000.37,-000.08,0000.17,-000.12,19.6,25.8,00.1,00.1,0627.0,30.9
2021-12-02T00:37:00Z,00000200,01000000,0000.08,0000.27,0000.00,-000.28,0000.01,-000.27,0000.01,0000.34,0000.70,19.7,25.8,00.1,00.1,0627.0,31.0
2021-12-02T00:38:00Z,00000200,01000000,0000.66,0000.29,0000.19,-000.39,-000.14,-000.24,-000.24,-000.49,-000.45,19.7,25.8,00.1,00.1,0627.1,30.9
2021-12-02T00:39:00Z,00000200,01000000,0000.36,0000.13,-000.19,0000.47,0000.22,-000.02,-000.05,0000.37,-000.06,19.8,25.9,00.1,00.1,0627.0,31.0
2021-12-02T00:40:00Z,00000200,01000000,0000.13,0000.02,-000.09,-000.25,0000.21,-000.16,0000.22,-000.08,-000.24,19.7,25.9,00.1,00.1,0626.9,30.9
2021-12-02T00:41:00Z,00000200,01000000,0000.07,0000.22,-000.03,0000.12,0000.42,-000.03,0000.04,0000.14,0000.27,19.7,25.9,00.1,00.1,0627.0,30.9
2021-12-02T00:42:00Z,00000200,01000000,0001.39,0000.08,-000.23,-000.06,0000.22,-000.42,-000.05,-000.38,0000.30,19.6,25.8,00.1,00.1,0626.9,30.9
2021-12-02T00:43:00Z,00000200,01000000,0000.24,0000.33,0000.39,0000.48,-000.07,0000.28,-000.06,0000.17,-000.15,19.6,25.8,00.0,00.0,0627.0,30.9
2021-12-02T00:44:00Z,00000200,01000000,0000.55,-000.10,0000.05,-000.87,-000.12,-000.64,0000.04,0000.17,0000.10,19.5,25.8,00.1,00.1,0627.0,30.9
2021-12-02T00:45:00Z,00000200,01000000,-000.42,0000.18,0000.00,-000.32,-000.02,0000.29,0000.06,0000.06,-000.32,19.5,25.8,00.1,00.1,0627.0,30.9
2021-12-02T00:46:00Z,00000200,01000000,0000.82,-000.11,-000.03,0000.21,-000.27,-000.31,0000.10,-000.21,0000.22,19.4,25.7,00.1,00.1,0627.0,30.9
2021-12-02T00:47:00Z,00000200,01000000,0000.28,0000.04,0000.12,0000.25,-000.10,-000.03,0000.18,0000.11,-000.25,19.4,25.7,00.0,00.0,0627.1,30.9
2021-12-02T00:48:00Z,00000200,01000000,0000.12,0000.15,-000.00,0000.28,0000.21,-000.08,0000.23,-000.05,0000.46,19.4,25.7,00.1,00.1,0627.1,30.9
2021-12-02T00:49:00Z,00000200,01000000,0000.45,0000.09,0000.09,-000.12,0000.21,-000.01,0000.04,0000.20,-000.04,19.4,25.7,00.1,00.1,0627.1,30.9
2021-12-02T00:50:00Z,00000200,01000000,0001.16,0000.18,0000.16,-000.27,-000.15,-000.28,-000.04,0000.14,0000.32,19.5,25.7,00.1,00.0,0627.1,30.9
2021-12-02T00:51:00Z,00000200,01000000,0000.15,-000.02,-000.34,-000.39,-000.20,-001.13,-000.06,0000.16,-000.31,19.5,25.7,00.1,00.1,0627.2,30.9
2021-12-02T00:52:00Z,00000200,01000000,0000.35,-000.11,0000.05,0000.71,0000.01,-000.02,0000.07,-000.11,0000.02,19.6,25.7,00.1,00.1,0627.2,30.9
2021-12-02T00:53:00Z,00000200,01000000,-000.30,0000.22,-000.01,-000.34,-000.01,-000.26,0000.07,0000.02,0000.14,19.7,25.8,00.1,00.1,0627.2,30.9
2021-12-02T00:54:00Z,00000200,01000000,-000.05,0000.02,-000.23,-000.13,0000.08,-000.40,0000.06,0000.22,-000.34,19.8,25.8,00.1,00.1,0627.2,30.9
2021-12-02T00:55:00Z,00000200,01000000,0001.22,0000.10,0000.09,-000.12,0000.08,-000.14,0000.03,-000.15,0000.49,19.8,25.8,00.0,00.0,0627.3,30.9
2021-12-02T00:56:00Z,00000200,01000000,0000.19,0000.08,0000.05,-000.09,-000.06,-000.37,-000.26,-000.45,-000.39,19.8,25.9,00.0,00.0,0627.3,31.0
2021-12-02T00:57:00Z,00000200,41000000,,,,,,,0000.03,0000.49,0000.17,19.9,25.9,,00.0,0627.4,30.9
2021-12-02T00:58:00Z,00000200,61000000,,,,,,,0000.10,-000.45,-000.25,19.5,26.0,,00.0,0626.5,30.9
2021-12-02T00:59:00Z,00000200,21000000,,,,,,,-000.01,-000.12,-000.01,19.5,26.1,,00.0,0626.4,30.9
